This is the latest recevied weather packets stored in our database for station/object DH1FR-13. If no packets are shown the sender has not sent any weather packets the latest 10 day(s).
| Time | Temp. | Humidity | Pressure | Rain* | Wind** | Luminosity | Snow |
|---|---|---|---|---|---|---|---|
| 1777705201 | 15.56° C | 64% | 1025.3 hPa | 0 mm | 0 m/s | - | - |
| 1777704601 | 13.89° C | 66% | 1025.5 hPa | 0 mm | 0 m/s | - | - |
| 1777704001 | 13.89° C | 69% | 1025.5 hPa | 0 mm | 0 m/s | - | - |
| 1777703400 | 12.78° C | 71% | 1025.6 hPa | 0 mm | 0 m/s | - | - |
| 1777702801 | 11.11° C | 73% | 1025.4 hPa | 0 mm | 0 m/s | - | - |
| 1777702201 | 10° C | 76% | 1025.5 hPa | 0 mm | 0 m/s | - | - |
| 1777701600 | 8.89° C | 77% | 1025.6 hPa | 0 mm | 0 m/s | - | - |
| 1777701001 | 0° C | 100% | - | - | 0 m/s | - | - |
| 1777700401 | 8.33° C | 89% | 1025.7 hPa | 0 mm | 0 m/s | - | - |
| 1777699801 | 5.56° C | 93% | 1025.9 hPa | 0 mm | 0 m/s | - | - |
| 1777699201 | 4.44° C | 95% | 1025.8 hPa | 0 mm | 0 m/s | - | - |
| 1777698601 | 3.89° C | 95% | 1025.7 hPa | 0 mm | 0 m/s | - | - |
| 1777698001 | 3.33° C | 95% | 1025.6 hPa | 0 mm | 0 m/s | - | - |
| 1777697401 | 3.33° C | 95% | 1025.6 hPa | 0 mm | 0 m/s | - | - |
| 1777696801 | 3.33° C | 96% | 1025.6 hPa | 0 mm | 0 m/s | - | - |
| 1777696201 | 3.33° C | 96% | 1025.6 hPa | 0 mm | 0 m/s | - | - |
| 1777695601 | 2.78° C | 96% | 1025.6 hPa | 0 mm | 0 m/s | - | - |
| 1777695001 | 2.78° C | 95% | 1025.4 hPa | 0 mm | 0 m/s | - | - |
| 1777694401 | 3.33° C | 95% | 1025.5 hPa | 0 mm | 0 m/s | - | - |
| 1777693801 | 3.33° C | 95% | 1025.8 hPa | 0 mm | 0 m/s | - | - |
| 1777693201 | 3.33° C | 95% | 1025.7 hPa | 0 mm | 0 m/s | - | - |
| 1777692601 | 3.33° C | 95% | 1025.9 hPa | 0 mm | 0 m/s | - | - |
| 1777692005 | 3.33° C | 95% | 1026 hPa | 0 mm | 0 m/s | - | - |
| 1777691400 | 3.33° C | 94% | 1025.8 hPa | 0 mm | 0 m/s | - | - |
| 1777690801 | 3.33° C | 94% | 1026 hPa | 0 mm | 0 m/s | - | - |
* Rain latest hour (hover to see other rain measurements)
** Current wind speed in m/s (hover to see current wind gust speed)